TimeEDT,TemperatureF,Dew PointF,Humidity,Sea Level PressureIn,VisibilityMPH,Wind Direction,Wind SpeedMPH,Gust SpeedMPH,PrecipitationIn,Events,Conditions,WindDirDegrees,DateUTC
12:54 AM,66.0,57.0,73,30.09,10.0,WSW,3.5,-,N/A,,Clear,240,2012-09-28 04:54:00
1:54 AM,64.0,57.0,78,30.09,10.0,WSW,3.5,-,N/A,,Clear,240,2012-09-28 05:54:00
2:54 AM,63.0,55.9,78,30.09,10.0,WSW,4.6,-,N/A,,Clear,250,2012-09-28 06:54:00
5:54 AM,60.1,55.9,86,30.06,10.0,WSW,3.5,-,N/A,,Clear,240,2012-09-28 09:54:00
6:54 AM,62.1,57.0,84,30.07,10.0,Calm,Calm,-,N/A,,Clear,0,2012-09-28 10:54:00
7:54 AM,63.0,59.0,87,30.07,7.0,South,3.5,-,N/A,,Clear,190,2012-09-28 11:54:00
9:54 AM,69.1,61.0,75,30.09,10.0,WSW,3.5,-,N/A,,Clear,240,2012-09-28 13:54:00
10:54 AM,73.9,62.1,66,30.08,10.0,Calm,Calm,-,N/A,,Clear,0,2012-09-28 14:54:00
11:54 AM,75.0,62.1,64,30.09,10.0,WSW,4.6,-,N/A,,Clear,250,2012-09-28 15:54:00
12:54 PM,79.0,62.1,56,30.06,10.0,WNW,3.5,-,N/A,,Clear,290,2012-09-28 16:54:00
1:54 PM,80.1,61.0,52,30.03,10.0,SW,8.1,-,N/A,,Clear,230,2012-09-28 17:54:00
2:54 PM,82.0,62.1,51,30.00,10.0,NW,8.1,-,N/A,,Scattered Clouds,310,2012-09-28 18:54:00
3:54 PM,78.1,62.1,58,30.00,10.0,North,4.6,-,N/A,,Mostly Cloudy,360,2012-09-28 19:54:00
4:41 PM,75.2,60.8,61,30.02,10.0,North,5.8,-,N/A,Thunderstorm,Thunderstorm,350,2012-09-28 20:41:00
4:54 PM,73.9,62.1,66,30.00,10.0,NNW,6.9,-,0.00,Rain-Thunderstorm,Light Thunderstorms and Rain,340,2012-09-28 20:54:00
5:54 PM,69.1,66.0,90,30.02,6.0,SSW,8.1,-,0.07,Rain-Thunderstorm,Light Thunderstorms and Rain,210,2012-09-28 21:54:00
6:09 PM,68.0,66.2,94,30.04,7.0,SSW,5.8,-,0.00,,Mostly Cloudy,210,2012-09-28 22:09:00
6:54 PM,66.9,64.9,93,30.01,6.0,Variable,3.5,-,0.00,,Scattered Clouds,0,2012-09-28 22:54:00
7:54 PM,66.0,64.0,93,30.03,4.0,West,3.5,-,0.00,Rain,Light Rain,280,2012-09-28 23:54:00
8:54 PM,66.0,64.0,93,30.01,10.0,South,6.9,-,0.14,Rain,Light Rain,190,2012-09-29 00:54:00
9:54 PM,64.0,63.0,96,30.01,7.0,South,4.6,-,0.00,,Scattered Clouds,190,2012-09-29 01:54:00
10:54 PM,64.9,64.0,97,30.01,9.0,South,6.9,-,N/A,,Mostly Cloudy,180,2012-09-29 02:54:00
11:54 PM,64.9,63.0,93,30.01,10.0,WSW,3.5,-,N/A,,Mostly Cloudy,250,2012-09-29 03:54:00